User: anonymous
Location: Unspecified
(0.0000°N, 0.0000°E)
Time: 10:33:15
(UTC+00:00)
Language:

Tiros 10 - Orbit

View from above orbital plane
View from above orbital plane
View from above satellite
View from above satellite

Ground track
Ground track

The orbit data is extracted from the following two-line orbital elements,

1 01430U 65051A   14205.06721552  .00000002  00000-0  13540-4 0  6430
2 01430 098.0797 040.8525 0056145 222.2390 137.4468 14.39903605570662
Epoch (UTC): 24 July 2014 01:36:47
Eccentricity: 0.0056145
inclination: 98.0797°
perigee height: 719 km
apogee height: 799 km
right ascension of ascending node: 40.8525°
argument of perigee: 222.2390°
revolutions per day: 14.39903605
mean anomaly at epoch: 137.4468°
orbit number at epoch: 57066

The dashed part of the orbit path shows where the satellite is in the earth's shadow,  

DLR